Location: Borojevi?i
(45.0486°N, 16.2297°E)
Time: 17:24:52
(UTC+00:00)

OE (NEXTSAT) - Pass Details

Date: 08 August 2020
Orbit: 431 x 438 km, 46.0° (Epoch: 25 September)

Event Time Altitude Azimuth Distance (km) Brightness Sun altitude
Rises 19:00:54 0° 282° (WNW) 2,418 9.6 -8.5°
Reaches altitude 10° 19:03:02 10° 281° (WNW) 1,547 8.4 -8.8°
Maximum altitude 19:06:32 81° 195° (SSW) 447 4.3 -9.3°
Enters shadow 19:09:31 13° 108° (ESE) 1,344 6.2 -9.7°
